Regional Weather Roundup
Issued by NWS Newport/Morehead, NC

Current Version | Previous Version | Graphics & Text | Print | Product List | Glossary On
Versions: 1 2 3 4 5 6 7 8 9 10 11 12 13 14 15 16 17 18 19 20 21 22 23 24 25 26 27 28 29 30 31 32 33 34 35 36 37 38 39 40 41 42 43 44 45 46 47 48 49 50
000 ASUS42 KMHX 011725 RWRMHX WEATHER ROUNDUP FOR EASTERN NORTH CAROLINA NATIONAL WEATHER SERVICE NEWPORT/MOREHEAD CITY NC 100 PM EDT TUE SEP 01 2015 NOTE: "FAIR" INDICATES FEW OR NO CLOUDS BELOW 12,000 FEET WITH NO SIGNIFICANT WEATHER AND/OR OBSTRUCTIONS TO VISIBILITY NCZ015>017-031-032-045>047-102-103-011800- NORTH COAST CITY SKY/WX TMP DP RH WIND PRES REMARKS EDENTON PTSUNNY 80 70 73 W6 30.09F ELIZABETH CITY MOSUNNY 83 72 69 N7 30.07F KITTY HAWK SUNNY 85 72 65 NE5 30.06F MANTEO SUNNY 81 73 75 NE8 30.07F $$ NCZ045>047-081-094-103-104-011800- CENTRAL COAST CITY SKY/WX TMP DP RH WIND PRES REMARKS FRISCO SUNNY 83 75 77 VRB5 30.06F SWANQUARTER N/A 82 N/A N/A W5G10 30.03F $$ NCZ095-097-098-100-101-011800- SOUTHERN COAST CITY SKY/WX TMP DP RH WIND PRES REMARKS BEAUFORT MOSUNNY 82 75 79 W7 30.07F CEDAR ISLAND N/A 81 N/A N/A NW7 30.12S JACKSONVILLE CLOUDY 81 70 69 N9 30.08F PINEY ISLAND SUNNY N/A N/A N/A N7 30.07F WILMINGTON MOSUNNY 84 71 65 NW6 30.09F $$ NCZ011>013-027>030-043-044-078>080-089-090>093-098-011800- COASTAL PLAIN CITY SKY/WX TMP DP RH WIND PRES REMARKS AHOSKIE SUNNY 79 70 74 NE3 30.09F CLINTON MOSUNNY 85 72 64 CALM 30.09F ELIZABETHTOWN MOSUNNY 85 69 59 NW6 30.09F GOLDSBORO PTSUNNY 84 72 67 N3 30.08F GREENVILLE CLOUDY 81 72 74 NE3 30.11S HAVELOCK PTSUNNY 85 71 63 N8 30.09F KENANSVILLE N/A 81 69 66 N3 30.10F KINSTON MOSUNNY 81 70 69 NW5 30.10F NEW BERN PTSUNNY 83 72 69 NW6 30.10F RICHLANDS PTSUNNY 82 68 61 NW5 30.09F ROCKY MOUNT SUNNY 85 70 60 VRB5 30.09F WASHINGTON SUNNY 79 71 77 W3 30.09F WHITEVILLE PTSUNNY 86 71 62 N5 30.09F $$ AMZ130-135-150-152-154-156-158-170-250-252-270-ANZ085-086-088-633-658-670-011800- MARINE OBSERVATIONS STATION/POSITION TIME TEMP WIND PRES WAVE SWELL AIR SEA DIR/SP/G HT/PER HT/PER (UTC) (F) (DEG/KT/KT) (MB) (FT/S) (FT/S) CHESAPEAKE LIGHT 1700 76 20/ 4/ 4 1019.1 64 E VA BEACH 1650 78 78 30/ 6/ 6 1017.9 3/ 8 2/ 8 DUCK 1700 78 78 40/ 6/ 7 1017.6 2 E DUCK 1611 79 N/A 2/10 OREGON INLET 1700 79 79 20/ 9/ 12 1017.9 13E OREGON INLT 1700 79 N/A 2/11 HATTERAS CG 1700 79 80 340/ 8/ 9 1017.8 DIAMOND BUOY 1650 79 84 340/ 8/ 10 1018.1 3/ 6 3/ 6 CAPE LOOKOUT 1700 81 260/ 7/ 9 1018.2 BEAUFORT LAB 1700 81 78 210/ 6/ 8 1017.7 30 SE NEW RVR IN 1608 79 81 330/ 8/ 12 1019.5 30 SE NEW RVR IN 1625 81 N/A 3/ 8 27 SE WRIGHTSVLE 1700 75 82 360/ 6/ 8 N/A 5 SE WRIGHTSVLE 1608 78 82 30/ 2/ 4 1019.4 225 S CAPE HAT 1650 84 84 250/ 6/ 8 1019.1 3/ 6 3/ 6 41 SE CHARLESTON 1650 81 83 30/ 6/ 8 1019.1 3/ 7 3/ 7 $$

USA.gov is the U.S. government's official web portal to all federal, state and local government web resources and services.